STARLINK-5627, 55364

Orbit data source: Space-Track

STARLINK-5627, 55364 is a payload satellite owned by SpaceX/Seattle (US) in LEO that was launched on Thu, 26 Jan 2023 UTC via an FALCON 9 launch vehicle from the Air Force Eastern Test Range (AFETR). Payload-class satellites include a variety of spacecraft equipped with specific instruments for various scientific and technological missions. These include communications satellites like Starlink; space stations such as the ISS; scientific satellites like the Hubble; Earth observation satellites from companies like Planet Labs, Umbra, and HawkEye 360; GPS; miniature CubeSats for education and research; and military/defense satellites.

Loading next visibility...
Identifier
55364, 2023-013AK
Orbit
LEO
Country
Flag of USUS
Related business
Manufacturer
SpaceX/Seattle
Mission
Operational Commercial Communications
Bus & Motor
STARLINK, Unknown motor
Mass
305 kg wet, ~290 kg dry
Launch date (UTC)
2023-01-26 (3 years ago)
Launch vehicle
FALCON 9
Launch site
Air Force Eastern Test Range (AFETR)
Object type
Payload
Rocket body
Debris
Shape & HBR
Box + 1 Pan, 10.1 m
Radar Cross Section
13.562 m², Large (>1 m²)

Expand to show TLE details & history
Last TLE update: 1 day ago

TLE from 1 day ago
0 STARLINK-5627
1 55364U 23013AK  25348.53114563  .00000362  00000-0  41889-4 0  9997
2 55364  43.0048  42.6864 0001327 277.6163  82.4529 15.02525024158908
Epoch: 2025-12-14T12:44Z
TLE epoch observation values (Epoch: 2025-12-14T12:44:50.982Z)
Latitude
0.00001°
Longitude
128.03126°
Altitude
558.771 km
Speed
7.584 km/s
True Right ascension
02h 50m 44s
True Declination
0° 00' 00"
Sunlit
Object was in full shadow at epoch
Visualization orbit readout
Latitude
Unknown
Longitude
Unknown
Altitude
Unknown
Speed
Unknown
Apparent Right ascension
Unknown
Apparent Declination
Unknown
Sunlit
N/A
Visualization observer readout
Local Sidereal Time
15:11:06
Azimuth
Unknown
Elevation
Unknown
Doppler factor
Unknown
Orbital elements
Apogee altitude
561.957 km
Perigee altitude
560.116 km
Semi-major axis
6,939.173 km
Eccentricity
0.00013
Inclination
43.0048°
RAAN
42.6864°
Arg. of periapsis
277.6163°
True anomaly
82.46797°
Mean anomaly
82.4529°
Eccentric anomaly
82.46044°
Mean motion
3.75475 °/min
Orbital period
95.88 mins
BSTAR
0.000041889
Loading maneuver chart data...
Computing Atmospheric mass density...
Loading historical data...
Loading historical data...
Loading historical data...
Loading historical data...
Loading historical data...
Loading historical data...
Loading historical data...

Documentation

Showing up to 5 results
|